Location: *
(50.3194°N, 7.1067°E)
Time: 04:16:40
(UTC+00:00)

Cosmos 2151 Rocket - Pass Details

Date: 22 September 2019
Orbit: 618 x 642 km, 82.5° (Epoch: 17 October)

Event Time Altitude Azimuth Distance (km) Brightness Sun altitude
Rises 17:59:06 0° 194° (SSW) 2,886 7.1 -5.4°
Reaches altitude 10° 18:01:20 10° 197° (SSW) 1,983 6.3 -5.7°
Maximum altitude 18:05:43 71° 281° (W) 658 3.9 -6.4°
Drops below altitude 10° 18:10:08 10° 6° (N) 1,996 6.2 -7.1°
Sets 18:12:23 0° 9° (N) 2,907 7.0 -7.5°
